Home > Weather > Halifax > Past weeks

Flag for Canada Weather for the Past 2 Weeks in Halifax, Nova Scotia, Canada

Now
23 °F

Overcast.


Feels Like: 8 °F
Forecast: 18 / 26 °F
Wind: 21 mph from Northeast

Location: Halifax International Airport

Current Time: Feb 8, 2016 at 2:01:08 PM

Latest Report: Feb 8, 2016 at 1:00 PM


Visibility: 15 mi

Pressure: 29.84 "Hg

Humidity: 68%

Dew point: 14 °F

Location of HalifaxLocation

Historic Weather in Halifax — Graph

°F

Halifax Temperature Yesterday

Maximum temperature yesterday: 37 °F (at 12:00 PM)
Minimum temperature yesterday: 19 °F (at 11:00 PM)
Average temperature yesterday: 31 °F

High & Low Weather Summary for the Past Weeks

 TemperatureHumidityPressure
High50 °F (Feb 4, 8:00 AM)100% (Jan 25, 2:00 AM)30.54 "Hg (Jan 25, 2:00 AM)
Low14 °F (Jan 25, 12:00 AM)40% (Feb 2, 3:00 PM)29.01 "Hg (Jan 29, 5:00 PM)
Average31 °F86%29.94 "Hg
* Reported Jan 24 1:00 PM — Feb 8 1:00 PM, Halifax, Weather by CustomWeather, © 2016

Note: Actual official high and low records may vary slightly from our data, if they occured in-between our weather recording intervals... More about our weather records

Advertising

Halifax Weather History for the Previous 24 Hours

 ConditionsComfort  
Time TempWeatherWind HumidityBarometerVisibility
1:00 PM
Mon, Feb 8
23 °FOvercast.21 mph68%29.84 "Hg15 mi
12:00 PM23 °FMore clouds than sun.26 mph68%29.89 "Hg15 mi
11:00 AM21 °FMostly cloudy.24 mph80%29.99 "Hg15 mi
10:00 AM21 °FOvercast.23 mph80%29.99 "Hg15 mi
9:00 AM19 °FMostly cloudy.15 mph86%30.09 "Hg15 mi
8:00 AM18 °FOvercast.16 mph86%30.09 "Hg15 mi
7:00 AM18 °FOvercast.15 mph79%30.12 "Hg15 mi
6:00 AM16 °FOvercast.14 mph86%30.16 "Hg15 mi
5:00 AM16 °FOvercast.15 mph79%30.16 "Hg15 mi
4:00 AM16 °FOvercast.13 mph73%30.20 "Hg15 mi
3:00 AM16 °FPassing clouds.13 mph73%30.19 "Hg15 mi
2:00 AM16 °FPassing clouds.12 mph62%30.22 "Hg15 mi
1:00 AM18 °FPassing clouds.10 mph53%30.22 "Hg15 mi
12:00 AM18 °FClear.9 mph53%30.25 "Hg15 mi
11:00 PM
Sun, Feb 7
19 °FClear.6 mph53%30.23 "Hg15 mi
10:00 PM23 °FPassing clouds.12 mph42%30.22 "Hg15 mi
9:00 PM25 °FPassing clouds.17 mph54%30.19 "Hg15 mi
8:00 PM28 °FPassing clouds.16 mph64%30.16 "Hg15 mi
7:00 PM30 °FPassing clouds.20 mph75%30.13 "Hg15 mi
6:00 PM34 °FOvercast.14 mph70%30.14 "Hg15 mi
5:00 PM36 °FOvercast.14 mph70%30.11 "Hg15 mi
4:47 PM36 °FPartly sunny.16 mph75%30.11 "Hg15 mi
4:00 PM37 °FBroken clouds.15 mph70%30.08 "Hg15 mi
3:00 PM36 °FSnow flurries. Partly sunny.20 mph75%30.06 "Hg15 mi
2:51 PM37 °FSnow flurries. Partly sunny.20 mph70%30.05 "Hg15 mi
2:00 PM37 °FPartly sunny.20 mph70%30.02 "Hg15 mi
Weather by CustomWeather, © 2016

See weather overviewHow to use our weather pages